This is the latest recevied weather packets stored in our database for station/object VK6HGR-1. If no packets are shown the sender has not sent any weather packets the latest 10 day(s).
| Time | Temp. | Humidity | Pressure | Rain* | Wind** | Luminosity | Snow |
|---|---|---|---|---|---|---|---|
| 1777999511 | 15.56° C | 62% | 1023.9 hPa | - | - | - | - |
| 1777998611 | 15.56° C | 62% | 1023.8 hPa | - | - | - | - |
| 1777997710 | 15.56° C | 62% | 1023.7 hPa | - | - | - | - |
| 1777996811 | 15.56° C | 62% | 1023.6 hPa | - | - | - | - |
| 1777995911 | 15.56° C | 61% | 1023.7 hPa | - | - | - | - |
| 1777995010 | 15.56° C | 62% | 1023.8 hPa | - | - | - | - |
| 1777994110 | 15° C | 63% | 1023.7 hPa | - | - | - | - |
| 1777993213 | 15.56° C | 64% | 1023.7 hPa | - | - | - | - |
| 1777992314 | 15.56° C | 65% | 1023.7 hPa | - | - | - | - |
| 1777991411 | 15.56° C | 65% | 1023.8 hPa | - | - | - | - |
| 1777990512 | 16.11° C | 65% | 1023.8 hPa | - | - | - | - |
| 1777989611 | 16.11° C | 65% | 1023.9 hPa | - | - | - | - |
| 1777988713 | 16.67° C | 65% | 1023.8 hPa | - | - | - | - |
| 1777987885 | 16.67° C | 64% | 1023.8 hPa | - | - | - | - |
| 1777987812 | 16.67° C | 64% | 1023.8 hPa | - | - | - | - |
| 1777986914 | 17.22° C | 64% | 1023.7 hPa | - | - | - | - |
| 1777986011 | 17.78° C | 63% | 1023.7 hPa | - | - | - | - |
| 1777985111 | 17.78° C | 62% | 1023.5 hPa | - | - | - | - |
| 1777984214 | 18.33° C | 62% | 1023.5 hPa | - | - | - | - |
| 1777983311 | 18.33° C | 61% | 1023.4 hPa | - | - | - | - |
| 1777982413 | 18.89° C | 61% | 1023.4 hPa | - | - | - | - |
| 1777981511 | 18.89° C | 61% | 1023.4 hPa | - | - | - | - |
| 1777980612 | 18.89° C | 60% | 1023.3 hPa | - | - | - | - |
| 1777979714 | 19.44° C | 60% | 1023.3 hPa | - | - | - | - |
| 1777978811 | 19.44° C | 59% | 1023.1 hPa | - | - | - | - |
* Rain since midnight (hover to see other rain measurements)
** Current wind speed in m/s (hover to see current wind gust speed)